Regional Weather Roundup
Issued by NWS

Home | Current Version | Previous Version | Text Only | Print | Product List | Glossary On
Versions: 1 2 3 4 5 6 7 8 9 10 11 12 13 14 15 16 17 18 19 20 21 22 23 24 25 26 27 28 29 30 31 32 33 34 35 36 37 38 39 40 41 42 43 44 45 46 47 48 49 50
000
ASUS45 KBOU 211907
RWRCO

WEATHER ROUNDUP FOR COLORADO
NATIONAL WEATHER SERVICE DENVER/BOULDER CO
100 PM MDT THU SEP 21 2017

NOTE: "FAIR" INDICATES FEW OR NO CLOUDS BELOW 12000 FEET WITH NO
SIGNIFICANT WEATHER AND/OR OBSTRUCTIONS TO VISIBILITY.

COZ001>005-013-030-031-212000-
...NORTHWEST COLORADO...

CITY           SKY/WX    TMP DP  RH WIND       PRES   REMARKS
CRAIG          FAIR      78  21  12 SW31G46   29.79F
HAYDEN         NOT AVBL
MEEKER         FAIR      75  25  15 S22G29    29.83F
RABBIT EARS PA FAIR      59  27  29 SW10G26   30.11S
STEAMBOAT SPGS FAIR      74  21  14 SW16G35   29.84F
WALDEN         FAIR      70  19  14 S24G31    29.94F
$$

COZ006>008-011-212000-
...WEST CENTRAL VALLEYS...

CITY           SKY/WX    TMP DP  RH WIND       PRES   REMARKS
GRAND JUNCTION FAIR      82  24  12 S21G35    29.78F
MONTROSE       FAIR      79  24  13 SW16      29.87F
EAGLE          FAIR      76  22  13 SW22G43   29.89F
RIFLE          FAIR      82  14   8 SW17G24   29.79F
DELTA          FAIR      83  22  10 SW14G22   29.85F
NUCLA          FAIR      77  21  12 SW17G31   29.95F
$$

COZ017>023-064>068-212000-
...SOUTHWEST COLORADO...

CITY           SKY/WX    TMP DP  RH WIND       PRES   REMARKS
DURANGO        FAIR      72  31  22 SW16G22   30.05F
CORTEZ         FAIR      77  20  12 S20G38    29.97F
PAGOSA SPRINGS FAIR      68  23  18 SW15      30.12F
TELLURIDE      FAIR      63  23  22 S6G25     30.13F
WOLF CREEK PAS FAIR      43  27  52 S29G39    30.34F
$$

COZ009-010-012-014-032>034-037-058>063-212000-
...CENTRAL COLORADO...

CITY           SKY/WX    TMP DP  RH WIND       PRES   REMARKS
ASPEN          FAIR      72  20  14 S20G29    29.94F
BUENA VISTA    FAIR      73  16  11 S13G22    29.98F
COPPER MTN     FAIR      59   7  12 S17G31    30.25R
BERTHOUD PASS  FAIR      50  41  71 W23G35    30.26S
COTTONWOOD PAS FAIR      68  14  12 W13G29    30.11F
GUNNISON       FAIR      69  26  20 SW5       29.99F
KREMMLING      FAIR      79  10   7 SW16G33   29.92F
LEADVILLE      FAIR      62  12  14 SW18G32   30.09F
MONARCH PASS   FAIR      52  19  28 SW31G38   30.36S
SALIDA         FAIR      73  22  14 S18G30    30.05F
SUNLIGHT       FAIR      59  23  25 S20G32    30.16F
WILKERSON PASS FAIR      59  21  23 SW10G24   30.21S
$$

COZ069>075-212000-
...SAN LUIS VALLEY/SANGRE DE CRISTO MOUNTAINS...

CITY           SKY/WX    TMP DP  RH WIND       PRES   REMARKS
ALAMOSA        FAIR      73  25  16 S25G32    30.04F
DEL NORTE      FAIR      70  26  18 SW17G30   30.08F
LA VETA PASS   FAIR      63  27  25 MISG      30.28R
SAGUACHE       FAIR      70  27  19 S22G29    30.05F
$$

COZ035-036-038>040-212000-
...NORTHERN COLORADO FRONT RANGE...

CITY           SKY/WX    TMP DP  RH WIND       PRES   REMARKS
DENVER INTL AP FAIR      86  21   9 SW12      29.75F
DMNS CITY PARK   N/A     86  25  10 SE7G16    29.72F
AURORA         MOSUNNY   86  21   9 S10G23    29.76F
FRONT RANGE AP MOSUNNY   88  23   9 SW10G18   29.77F
ERIE MUNI ARPT FAIR      86  16   7 E6        29.78F
BOULDER MUN AP FAIR      81  34  18 N6        29.74F
CENTENNIAL     FAIR      85  19   9 S18G26    29.77F
BROOMFIELD     MOSUNNY   84  23  10 N9        29.77F
FORT COLLINS   FAIR      81  37  20 VRB7      29.75S HAZE
LONGMONT       FAIR      84  35  16 E3        29.75F
$$

COZ041-046-047-076>085-087-088-212000-
...PIKES PEAK/PALMER DIVIDE AND SOUTHERN FOOTHILLS...

CITY           SKY/WX    TMP DP  RH WIND       PRES   REMARKS
COLO. SPRINGS  FAIR      83  27  13 S23G30    29.87F
A. F. ACADEMY  FAIR      82  16   8 S10G17    29.86F
SCHRIEVER AFB  FAIR      81  24  12 S16G25    29.88F
CHEYENNE MTN   FAIR      77  21  12 S18G28    29.86R
ELLICOTT         N/A    N/A N/A N/A SW12G20   29.87F
FALCON         FAIR      79  21  12 S21G32    29.92F
FORT CARSON    FAIR      82  25  12 S15G23    29.83F
LIMON          FAIR      87  24  10 S17G28    29.80F
MONUMENT HILL  FAIR      77  23  13 SW20G26   29.91F
CANON CITY     SUNNY     86  30  13 SE9       29.81F
WALSENBURG     FAIR      84  28  13 SW24G33   29.89F
TRINIDAD       FAIR      84  35  17 S9        29.88F
$$

COZ042>045-048>051-090-091-212000-
...NORTHEAST COLORADO...

CITY           SKY/WX    TMP DP  RH WIND       PRES   REMARKS
GREELEY ARPT   FAIR      80  41  24 SE5       29.73F
AKRON          FAIR      90  21   8 SW14G24   29.73F
BURLINGTON     FAIR      91  35  13 S15G22    29.77F
WRAY           FAIR      97  30   9 S15G24    29.69F
YUMA           FAIR      91  25   9 SW14G22   29.70F
STERLING       FAIR      86  37  17 SE3       29.69F
HOLYOKE        NOT AVBL
FORT MORGAN    FAIR      85  31  14 SW5       29.73F
$$

COZ086-089-092>099-212000-
...SOUTHEAST COLORADO...

CITY           SKY/WX    TMP DP  RH WIND       PRES   REMARKS
PUEBLO         FAIR      87  27  11 E5        29.76F
LA JUNTA       FAIR      91  29  11 SW12G18   29.76F
LAMAR          FAIR      95  27   9 SW26G36   29.71F
SPRINGFIELD      N/A     89  37  16 S25G33    29.82F
$$



USA.gov is the U.S. government's official web portal to all federal, state and local government web resources and services.